Time,TemperatureF,DewpointF,PressureIn,WindDirection,WindDirectionDegrees,WindSpeedMPH,WindSpeedGustMPH,Humidity,HourlyPrecipIn,Conditions,Clouds,dailyrainin,SoftwareType,DateUTC
2013-03-30 00:00:00,45.1,27.7,29.87,North,-999,-999.0,-999.0,50,-99.99,,,-99.99,meteohub,2013-03-30 04:00:00,
2013-03-30 00:02:00,45.1,27.7,29.87,North,-999,-999.0,-999.0,50,-99.99,,,-99.99,meteohub,2013-03-30 04:02:00,
2013-03-30 00:07:00,45.3,28.2,29.87,North,-999,-999.0,-999.0,51,-99.99,,,-99.99,meteohub,2013-03-30 04:07:00,
2013-03-30 00:12:00,45.3,28.2,29.87,North,-999,-999.0,-999.0,51,-99.99,,,-99.99,meteohub,2013-03-30 04:12:00,
2013-03-30 00:17:00,45.7,28.6,29.87,North,-999,-999.0,-999.0,51,-99.99,,,-99.99,meteohub,2013-03-30 04:17:00,
2013-03-30 00:22:00,45.9,28.4,29.87,North,-999,-999.0,-999.0,50,-99.99,,,-99.99,meteohub,2013-03-30 04:22:00,
2013-03-30 00:27:00,45.9,28.4,29.87,North,-999,-999.0,-999.0,50,-99.99,,,-99.99,meteohub,2013-03-30 04:27:00,
2013-03-30 00:32:00,46.0,28.0,29.87,North,-999,-999.0,-999.0,49,-99.99,,,-99.99,meteohub,2013-03-30 04:32:00,
2013-03-30 00:37:00,46.2,28.2,29.87,North,-999,-999.0,-999.0,49,-99.99,,,-99.99,meteohub,2013-03-30 04:37:00,
2013-03-30 00:43:00,46.2,28.2,29.87,North,-999,-999.0,-999.0,49,-99.99,,,-99.99,meteohub,2013-03-30 04:43:00,
2013-03-30 00:48:00,46.4,28.4,29.87,North,-999,-999.0,-999.0,49,-99.99,,,-99.99,meteohub,2013-03-30 04:48:00,
2013-03-30 00:53:00,46.4,28.4,29.84,North,-999,-999.0,-999.0,49,-99.99,,,-99.99,meteohub,2013-03-30 04:53:00,
2013-03-30 00:58:00,46.4,28.4,29.84,North,-999,-999.0,-999.0,49,-99.99,,,-99.99,meteohub,2013-03-30 04:58:00,
2013-03-30 01:03:00,46.4,27.9,29.84,North,-999,-999.0,-999.0,48,-99.99,,,-99.99,meteohub,2013-03-30 05:03:00,
2013-03-30 01:09:00,46.4,27.9,29.84,North,-999,-999.0,-999.0,48,-99.99,,,-99.99,meteohub,2013-03-30 05:09:00,
2013-03-30 01:14:00,46.4,27.9,29.84,North,-999,-999.0,-999.0,48,-99.99,,,-99.99,meteohub,2013-03-30 05:14:00,
2013-03-30 01:19:00,46.4,27.9,29.87,North,-999,-999.0,-999.0,48,-99.99,,,-99.99,meteohub,2013-03-30 05:19:00,
2013-03-30 01:24:00,46.0,28.4,29.87,North,-999,-999.0,-999.0,50,-99.99,,,-99.99,meteohub,2013-03-30 05:24:00,
2013-03-30 01:29:00,45.9,28.4,29.87,North,-999,-999.0,-999.0,50,-99.99,,,-99.99,meteohub,2013-03-30 05:29:00,
2013-03-30 01:34:00,45.5,28.0,29.84,North,-999,-999.0,-999.0,50,-99.99,,,-99.99,meteohub,2013-03-30 05:34:00,
2013-03-30 01:40:00,45.3,28.2,29.84,North,-999,-999.0,-999.0,51,-99.99,,,-99.99,meteohub,2013-03-30 05:40:00,
2013-03-30 01:45:00,45.3,28.2,29.84,North,-999,-999.0,-999.0,51,-99.99,,,-99.99,meteohub,2013-03-30 05:45:00,
2013-03-30 01:50:00,45.1,28.0,29.84,North,-999,-999.0,-999.0,51,-99.99,,,-99.99,meteohub,2013-03-30 05:50:00,
2013-03-30 01:55:00,45.1,28.0,29.84,North,-999,-999.0,-999.0,51,-99.99,,,-99.99,meteohub,2013-03-30 05:55:00,
2013-03-30 02:00:00,45.0,28.0,29.84,North,-999,-999.0,-999.0,51,-99.99,,,-99.99,meteohub,2013-03-30 06:00:00,
2013-03-30 02:05:00,45.0,28.0,29.84,North,-999,-999.0,-999.0,51,-99.99,,,-99.99,meteohub,2013-03-30 06:05:00,
2013-03-30 02:11:00,44.8,28.2,29.84,North,-999,-999.0,-999.0,52,-99.99,,,-99.99,meteohub,2013-03-30 06:11:00,
2013-03-30 02:16:00,44.8,27.9,29.84,North,-999,-999.0,-999.0,51,-99.99,,,-99.99,meteohub,2013-03-30 06:16:00,
2013-03-30 02:21:00,44.6,27.7,29.84,North,-999,-999.0,-999.0,51,-99.99,,,-99.99,meteohub,2013-03-30 06:21:00,
2013-03-30 02:27:00,44.6,27.7,29.84,North,-999,-999.0,-999.0,51,-99.99,,,-99.99,meteohub,2013-03-30 06:27:00,
2013-03-30 02:32:00,44.4,27.9,29.84,North,-999,-999.0,-999.0,52,-99.99,,,-99.99,meteohub,2013-03-30 06:32:00,
2013-03-30 02:37:00,44.4,27.9,29.84,North,-999,-999.0,-999.0,52,-99.99,,,-99.99,meteohub,2013-03-30 06:37:00,
2013-03-30 02:42:00,44.2,27.7,29.84,North,-999,-999.0,-999.0,52,-99.99,,,-99.99,meteohub,2013-03-30 06:42:00,
2013-03-30 02:47:00,44.1,27.7,29.84,North,-999,-999.0,-999.0,52,-99.99,,,-99.99,meteohub,2013-03-30 06:47:00,
2013-03-30 02:52:00,44.1,27.7,29.84,North,-999,-999.0,-999.0,52,-99.99,,,-99.99,meteohub,2013-03-30 06:52:00,
2013-03-30 02:57:00,43.9,27.5,29.84,North,-999,-999.0,-999.0,52,-99.99,,,-99.99,meteohub,2013-03-30 06:57:00,
2013-03-30 03:02:00,43.7,27.3,29.84,North,-999,-999.0,-999.0,52,-99.99,,,-99.99,meteohub,2013-03-30 07:02:00,
2013-03-30 03:08:00,43.5,27.1,29.84,North,-999,-999.0,-999.0,52,-99.99,,,-99.99,meteohub,2013-03-30 07:08:00,
2013-03-30 03:13:00,43.5,27.5,29.84,North,-999,-999.0,-999.0,53,-99.99,,,-99.99,meteohub,2013-03-30 07:13:00,
2013-03-30 03:18:00,43.3,27.3,29.84,North,-999,-999.0,-999.0,53,-99.99,,,-99.99,meteohub,2013-03-30 07:18:00,
2013-03-30 03:23:00,43.2,27.7,29.84,North,-999,-999.0,-999.0,54,-99.99,,,-99.99,meteohub,2013-03-30 07:23:00,
2013-03-30 03:28:00,43.0,27.5,29.84,North,-999,-999.0,-999.0,54,-99.99,,,-99.99,meteohub,2013-03-30 07:28:00,
2013-03-30 03:33:00,42.8,27.3,29.84,North,-999,-999.0,-999.0,54,-99.99,,,-99.99,meteohub,2013-03-30 07:33:00,
2013-03-30 03:38:00,42.4,27.5,29.84,North,-999,-999.0,-999.0,55,-99.99,,,-99.99,meteohub,2013-03-30 07:38:00,
2013-03-30 03:44:00,42.3,27.3,29.84,North,-999,-999.0,-999.0,55,-99.99,,,-99.99,meteohub,2013-03-30 07:44:00,
2013-03-30 03:49:00,42.1,27.1,29.84,North,-999,-999.0,-999.0,55,-99.99,,,-99.99,meteohub,2013-03-30 07:49:00,
2013-03-30 03:54:00,41.7,26.8,29.84,North,-999,-999.0,-999.0,55,-99.99,,,-99.99,meteohub,2013-03-30 07:54:00,
2013-03-30 03:59:00,41.5,27.0,29.84,North,-999,-999.0,-999.0,56,-99.99,,,-99.99,meteohub,2013-03-30 07:59:00,
2013-03-30 04:04:00,41.4,27.0,29.84,North,-999,-999.0,-999.0,56,-99.99,,,-99.99,meteohub,2013-03-30 08:04:00,
2013-03-30 04:09:00,41.4,27.3,29.84,North,-999,-999.0,-999.0,57,-99.99,,,-99.99,meteohub,2013-03-30 08:09:00,
2013-03-30 04:15:00,41.4,27.3,29.84,North,-999,-999.0,-999.0,57,-99.99,,,-99.99,meteohub,2013-03-30 08:15:00,
2013-03-30 04:20:00,41.5,27.9,29.84,North,-999,-999.0,-999.0,58,-99.99,,,-99.99,meteohub,2013-03-30 08:20:00,
2013-03-30 04:25:00,41.5,27.9,29.84,North,-999,-999.0,-999.0,58,-99.99,,,-99.99,meteohub,2013-03-30 08:25:00,
2013-03-30 04:30:00,41.5,28.4,29.84,North,-999,-999.0,-999.0,59,-99.99,,,-99.99,meteohub,2013-03-30 08:30:00,
2013-03-30 04:35:00,41.5,28.4,29.84,North,-999,-999.0,-999.0,59,-99.99,,,-99.99,meteohub,2013-03-30 08:35:00,
2013-03-30 04:40:00,41.5,28.4,29.84,North,-999,-999.0,-999.0,59,-99.99,,,-99.99,meteohub,2013-03-30 08:40:00,
2013-03-30 04:45:00,41.7,28.4,29.84,North,-999,-999.0,-999.0,59,-99.99,,,-99.99,meteohub,2013-03-30 08:45:00,
2013-03-30 04:51:00,41.7,28.4,29.84,North,-999,-999.0,-999.0,59,-99.99,,,-99.99,meteohub,2013-03-30 08:51:00,
2013-03-30 04:56:00,41.7,28.4,29.84,North,-999,-999.0,-999.0,59,-99.99,,,-99.99,meteohub,2013-03-30 08:56:00,
2013-03-30 05:01:00,41.7,28.4,29.84,North,-999,-999.0,-999.0,59,-99.99,,,-99.99,meteohub,2013-03-30 09:01:00,
2013-03-30 05:06:00,41.7,28.4,29.84,North,-999,-999.0,-999.0,59,-99.99,,,-99.99,meteohub,2013-03-30 09:06:00,
2013-03-30 05:12:00,41.7,28.9,29.84,North,-999,-999.0,-999.0,60,-99.99,,,-99.99,meteohub,2013-03-30 09:12:00,
2013-03-30 05:17:00,41.7,28.9,29.84,North,-999,-999.0,-999.0,60,-99.99,,,-99.99,meteohub,2013-03-30 09:17:00,
2013-03-30 05:22:00,41.7,28.9,29.84,North,-999,-999.0,-999.0,60,-99.99,,,-99.99,meteohub,2013-03-30 09:22:00,
2013-03-30 05:27:00,41.7,28.9,29.84,North,-999,-999.0,-999.0,60,-99.99,,,-99.99,meteohub,2013-03-30 09:27:00,
2013-03-30 05:32:00,41.7,28.9,29.84,North,-999,-999.0,-999.0,60,-99.99,,,-99.99,meteohub,2013-03-30 09:32:00,
2013-03-30 05:35:00,41.7,28.9,29.84,North,-999,-999.0,-999.0,60,-99.99,,,-99.99,meteohub,2013-03-30 09:35:00,
2013-03-30 05:40:00,41.5,28.8,29.84,North,-999,-999.0,-999.0,60,-99.99,,,-99.99,meteohub,2013-03-30 09:40:00,
2013-03-30 05:45:00,41.5,29.1,29.84,North,-999,-999.0,-999.0,61,-99.99,,,-99.99,meteohub,2013-03-30 09:45:00,
2013-03-30 05:50:00,41.5,29.1,29.84,North,-999,-999.0,-999.0,61,-99.99,,,-99.99,meteohub,2013-03-30 09:50:00,
2013-03-30 05:56:00,41.5,29.1,29.84,North,-999,-999.0,-999.0,61,-99.99,,,-99.99,meteohub,2013-03-30 09:56:00,
2013-03-30 06:01:00,41.5,29.1,29.84,North,-999,-999.0,-999.0,61,-99.99,,,-99.99,meteohub,2013-03-30 10:01:00,
2013-03-30 06:06:00,41.2,28.8,29.84,North,-999,-999.0,-999.0,61,-99.99,,,-99.99,meteohub,2013-03-30 10:06:00,
2013-03-30 06:12:00,41.2,29.1,29.84,North,-999,-999.0,-999.0,62,-99.99,,,-99.99,meteohub,2013-03-30 10:12:00,
2013-03-30 06:17:00,41.0,28.6,29.84,North,-999,-999.0,-999.0,61,-99.99,,,-99.99,meteohub,2013-03-30 10:17:00,
2013-03-30 06:22:00,40.6,28.8,29.84,North,-999,-999.0,-999.0,62,-99.99,,,-99.99,meteohub,2013-03-30 10:22:00,
2013-03-30 06:27:00,40.6,29.1,29.84,North,-999,-999.0,-999.0,63,-99.99,,,-99.99,meteohub,2013-03-30 10:27:00,
2013-03-30 06:32:00,40.6,29.1,29.84,North,-999,-999.0,-999.0,63,-99.99,,,-99.99,meteohub,2013-03-30 10:32:00,
2013-03-30 06:37:00,40.5,28.9,29.84,North,-999,-999.0,-999.0,63,-99.99,,,-99.99,meteohub,2013-03-30 10:37:00,
2013-03-30 06:42:00,40.5,29.7,29.84,North,-999,-999.0,-999.0,65,-99.99,,,-99.99,meteohub,2013-03-30 10:42:00,
2013-03-30 06:47:00,40.5,29.7,29.84,North,-999,-999.0,-999.0,65,-99.99,,,-99.99,meteohub,2013-03-30 10:47:00,
2013-03-30 06:53:00,40.6,29.8,29.84,North,-999,-999.0,-999.0,65,-99.99,,,-99.99,meteohub,2013-03-30 10:53:00,
2013-03-30 06:58:00,40.6,29.8,29.84,North,-999,-999.0,-999.0,65,-99.99,,,-99.99,meteohub,2013-03-30 10:58:00,
2013-03-30 07:03:00,40.8,30.0,29.84,North,-999,-999.0,-999.0,65,-99.99,,,-99.99,meteohub,2013-03-30 11:03:00,
2013-03-30 07:08:00,40.8,30.0,29.87,North,-999,-999.0,-999.0,65,-99.99,,,-99.99,meteohub,2013-03-30 11:08:00,
2013-03-30 07:13:00,41.0,30.6,29.87,North,-999,-999.0,-999.0,66,-99.99,,,-99.99,meteohub,2013-03-30 11:13:00,
2013-03-30 07:19:00,41.0,30.6,29.90,North,-999,-999.0,-999.0,66,-99.99,,,-99.99,meteohub,2013-03-30 11:19:00,
2013-03-30 07:24:00,41.2,30.7,29.90,North,-999,-999.0,-999.0,66,-99.99,,,-99.99,meteohub,2013-03-30 11:24:00,
2013-03-30 07:29:00,41.4,30.9,29.90,North,-999,-999.0,-999.0,66,-99.99,,,-99.99,meteohub,2013-03-30 11:29:00,
2013-03-30 07:34:00,41.5,30.7,29.90,North,-999,-999.0,-999.0,65,-99.99,,,-99.99,meteohub,2013-03-30 11:34:00,
2013-03-30 07:39:00,41.5,31.1,29.90,North,-999,-999.0,-999.0,66,-99.99,,,-99.99,meteohub,2013-03-30 11:39:00,
2013-03-30 07:45:00,41.7,31.3,29.90,North,-999,-999.0,-999.0,66,-99.99,,,-99.99,meteohub,2013-03-30 11:45:00,
2013-03-30 07:50:00,41.9,31.5,29.90,North,-999,-999.0,-999.0,66,-99.99,,,-99.99,meteohub,2013-03-30 11:50:00,
2013-03-30 07:55:00,42.1,32.0,29.90,North,-999,-999.0,-999.0,67,-99.99,,,-99.99,meteohub,2013-03-30 11:55:00,
2013-03-30 08:00:00,42.4,32.4,29.90,North,-999,-999.0,-999.0,67,-99.99,,,-99.99,meteohub,2013-03-30 12:00:00,
2013-03-30 08:05:00,43.0,32.4,29.90,North,-999,-999.0,-999.0,66,-99.99,,,-99.99,meteohub,2013-03-30 12:05:00,
2013-03-30 08:10:00,43.3,32.7,29.90,North,-999,-999.0,-999.0,66,-99.99,,,-99.99,meteohub,2013-03-30 12:10:00,
2013-03-30 08:16:00,43.7,33.1,29.90,North,-999,-999.0,-999.0,66,-99.99,,,-99.99,meteohub,2013-03-30 12:16:00,
2013-03-30 08:21:00,44.1,33.8,29.90,North,-999,-999.0,-999.0,67,-99.99,,,-99.99,meteohub,2013-03-30 12:21:00,
2013-03-30 08:26:00,44.6,34.0,29.90,North,-999,-999.0,-999.0,66,-99.99,,,-99.99,meteohub,2013-03-30 12:26:00,
2013-03-30 08:31:00,45.0,34.7,29.90,North,-999,-999.0,-999.0,67,-99.99,,,-99.99,meteohub,2013-03-30 12:31:00,
2013-03-30 08:36:00,45.5,34.9,29.90,North,-999,-999.0,-999.0,66,-99.99,,,-99.99,meteohub,2013-03-30 12:36:00,
2013-03-30 08:41:00,46.0,34.9,29.90,North,-999,-999.0,-999.0,65,-99.99,,,-99.99,meteohub,2013-03-30 12:41:00,
2013-03-30 08:47:00,46.2,35.1,29.90,North,-999,-999.0,-999.0,65,-99.99,,,-99.99,meteohub,2013-03-30 12:47:00,
2013-03-30 08:52:00,46.8,34.9,29.93,North,-999,-999.0,-999.0,63,-99.99,,,-99.99,meteohub,2013-03-30 12:52:00,
2013-03-30 08:56:00,47.1,34.3,29.93,North,-999,-999.0,-999.0,61,-99.99,,,-99.99,meteohub,2013-03-30 12:56:00,
2013-03-30 09:02:00,47.8,35.1,29.93,North,-999,-999.0,-999.0,61,-99.99,,,-99.99,meteohub,2013-03-30 13:02:00,
2013-03-30 09:07:00,48.4,34.3,29.93,North,-999,-999.0,-999.0,58,-99.99,,,-99.99,meteohub,2013-03-30 13:07:00,
2013-03-30 09:12:00,48.7,34.7,29.93,North,-999,-999.0,-999.0,58,-99.99,,,-99.99,meteohub,2013-03-30 13:12:00,
2013-03-30 09:17:00,49.3,34.7,29.93,North,-999,-999.0,-999.0,57,-99.99,,,-99.99,meteohub,2013-03-30 13:17:00,
2013-03-30 09:22:00,49.5,34.9,29.93,North,-999,-999.0,-999.0,57,-99.99,,,-99.99,meteohub,2013-03-30 13:22:00,
2013-03-30 09:27:00,50.0,34.5,29.93,North,-999,-999.0,-999.0,55,-99.99,,,-99.99,meteohub,2013-03-30 13:27:00,
2013-03-30 09:32:00,50.2,34.7,29.93,North,-999,-999.0,-999.0,55,-99.99,,,-99.99,meteohub,2013-03-30 13:32:00,
2013-03-30 09:37:00,50.7,34.2,29.93,North,-999,-999.0,-999.0,53,-99.99,,,-99.99,meteohub,2013-03-30 13:37:00,
2013-03-30 09:42:00,51.3,34.3,29.93,North,-999,-999.0,-999.0,52,-99.99,,,-99.99,meteohub,2013-03-30 13:42:00,
2013-03-30 09:48:00,52.0,34.0,29.93,North,-999,-999.0,-999.0,50,-99.99,,,-99.99,meteohub,2013-03-30 13:48:00,
2013-03-30 09:53:00,52.3,33.3,29.90,North,-999,-999.0,-999.0,48,-99.99,,,-99.99,meteohub,2013-03-30 13:53:00,
2013-03-30 09:58:00,52.7,29.1,29.90,North,-999,-999.0,-999.0,40,-99.99,,,-99.99,meteohub,2013-03-30 13:58:00,
2013-03-30 10:03:00,53.8,32.4,29.90,North,-999,-999.0,-999.0,44,-99.99,,,-99.99,meteohub,2013-03-30 14:03:00,
2013-03-30 10:08:00,54.7,33.3,29.90,North,-999,-999.0,-999.0,44,-99.99,,,-99.99,meteohub,2013-03-30 14:08:00,
2013-03-30 10:14:00,56.1,33.4,29.90,North,-999,-999.0,-999.0,42,-99.99,,,-99.99,meteohub,2013-03-30 14:14:00,
2013-03-30 10:19:00,56.8,33.4,29.90,North,-999,-999.0,-999.0,41,-99.99,,,-99.99,meteohub,2013-03-30 14:19:00,
2013-03-30 10:24:00,57.2,31.8,29.90,North,-999,-999.0,-999.0,38,-99.99,,,-99.99,meteohub,2013-03-30 14:24:00,
2013-03-30 10:29:00,57.7,31.6,29.90,North,-999,-999.0,-999.0,37,-99.99,,,-99.99,meteohub,2013-03-30 14:29:00,
2013-03-30 10:34:00,58.1,31.3,29.90,North,-999,-999.0,-999.0,36,-99.99,,,-99.99,meteohub,2013-03-30 14:34:00,
2013-03-30 10:40:00,57.9,31.1,29.90,North,-999,-999.0,-999.0,36,-99.99,,,-99.99,meteohub,2013-03-30 14:40:00,
2013-03-30 10:45:00,58.3,30.7,29.90,North,-999,-999.0,-999.0,35,-99.99,,,-99.99,meteohub,2013-03-30 14:45:00,
2013-03-30 10:50:00,58.6,31.8,29.90,North,-999,-999.0,-999.0,36,-99.99,,,-99.99,meteohub,2013-03-30 14:50:00,
2013-03-30 10:55:00,59.7,32.0,29.90,North,-999,-999.0,-999.0,35,-99.99,,,-99.99,meteohub,2013-03-30 14:55:00,
2013-03-30 11:01:00,60.6,32.9,29.90,North,-999,-999.0,-999.0,35,-99.99,,,-99.99,meteohub,2013-03-30 15:01:00,
2013-03-30 11:06:00,61.2,32.5,29.90,North,-999,-999.0,-999.0,34,-99.99,,,-99.99,meteohub,2013-03-30 15:06:00,
2013-03-30 11:11:00,62.4,33.8,29.90,North,-999,-999.0,-999.0,34,-99.99,,,-99.99,meteohub,2013-03-30 15:11:00,
2013-03-30 11:16:00,63.1,32.9,29.90,North,-999,-999.0,-999.0,32,-99.99,,,-99.99,meteohub,2013-03-30 15:16:00,
2013-03-30 11:22:00,62.2,31.3,29.90,North,-999,-999.0,-999.0,31,-99.99,,,-99.99,meteohub,2013-03-30 15:22:00,
2013-03-30 11:27:00,62.8,30.0,29.90,North,-999,-999.0,-999.0,29,-99.99,,,-99.99,meteohub,2013-03-30 15:27:00,
2013-03-30 11:32:00,63.5,29.8,29.90,North,-999,-999.0,-999.0,28,-99.99,,,-99.99,meteohub,2013-03-30 15:32:00,
2013-03-30 11:37:00,63.3,28.8,29.87,North,-999,-999.0,-999.0,27,-99.99,,,-99.99,meteohub,2013-03-30 15:37:00,
2013-03-30 11:42:00,62.4,28.0,29.87,North,-999,-999.0,-999.0,27,-99.99,,,-99.99,meteohub,2013-03-30 15:42:00,
2013-03-30 11:47:00,61.9,27.5,29.87,North,-999,-999.0,-999.0,27,-99.99,,,-99.99,meteohub,2013-03-30 15:47:00,
2013-03-30 11:52:00,61.9,27.5,29.87,North,-999,-999.0,-999.0,27,-99.99,,,-99.99,meteohub,2013-03-30 15:52:00,
2013-03-30 11:57:00,63.0,28.6,29.87,North,-999,-999.0,-999.0,27,-99.99,,,-99.99,meteohub,2013-03-30 15:57:00,
2013-03-30 12:02:00,64.2,28.6,29.87,North,-999,-999.0,-999.0,26,-99.99,,,-99.99,meteohub,2013-03-30 16:02:00,
2013-03-30 12:07:00,64.8,29.1,29.87,North,-999,-999.0,-999.0,26,-99.99,,,-99.99,meteohub,2013-03-30 16:07:00,
2013-03-30 12:12:00,64.9,29.3,29.87,North,-999,-999.0,-999.0,26,-99.99,,,-99.99,meteohub,2013-03-30 16:12:00,
2013-03-30 12:17:00,65.7,28.9,29.87,North,-999,-999.0,-999.0,25,-99.99,,,-99.99,meteohub,2013-03-30 16:17:00,
2013-03-30 12:22:00,64.2,28.6,29.87,North,-999,-999.0,-999.0,26,-99.99,,,-99.99,meteohub,2013-03-30 16:22:00,
2013-03-30 12:27:00,64.0,27.5,29.87,North,-999,-999.0,-999.0,25,-99.99,,,-99.99,meteohub,2013-03-30 16:27:00,
2013-03-30 12:32:00,64.2,28.6,29.87,North,-999,-999.0,-999.0,26,-99.99,,,-99.99,meteohub,2013-03-30 16:32:00,
2013-03-30 12:37:00,64.8,29.1,29.84,North,-999,-999.0,-999.0,26,-99.99,,,-99.99,meteohub,2013-03-30 16:37:00,
2013-03-30 12:42:00,66.4,30.6,29.84,North,-999,-999.0,-999.0,26,-99.99,,,-99.99,meteohub,2013-03-30 16:42:00,
2013-03-30 12:47:00,66.7,30.7,29.84,North,-999,-999.0,-999.0,26,-99.99,,,-99.99,meteohub,2013-03-30 16:47:00,
2013-03-30 12:52:00,67.1,31.1,29.84,North,-999,-999.0,-999.0,26,-99.99,,,-99.99,meteohub,2013-03-30 16:52:00,
2013-03-30 12:57:00,67.5,30.4,29.84,North,-999,-999.0,-999.0,25,-99.99,,,-99.99,meteohub,2013-03-30 16:57:00,
2013-03-30 13:02:00,67.1,30.2,29.84,North,-999,-999.0,-999.0,25,-99.99,,,-99.99,meteohub,2013-03-30 17:02:00,
2013-03-30 13:08:00,67.1,31.1,29.84,North,-999,-999.0,-999.0,26,-99.99,,,-99.99,meteohub,2013-03-30 17:08:00,
2013-03-30 13:13:00,68.0,31.8,29.84,North,-999,-999.0,-999.0,26,-99.99,,,-99.99,meteohub,2013-03-30 17:13:00,
2013-03-30 13:18:00,67.8,30.7,29.84,North,-999,-999.0,-999.0,25,-99.99,,,-99.99,meteohub,2013-03-30 17:18:00,
2013-03-30 13:23:00,68.2,31.1,29.84,North,-999,-999.0,-999.0,25,-99.99,,,-99.99,meteohub,2013-03-30 17:23:00,
2013-03-30 13:28:00,67.5,30.4,29.84,North,-999,-999.0,-999.0,25,-99.99,,,-99.99,meteohub,2013-03-30 17:28:00,
2013-03-30 13:33:00,66.9,30.0,29.84,North,-999,-999.0,-999.0,25,-99.99,,,-99.99,meteohub,2013-03-30 17:33:00,
2013-03-30 13:38:00,66.9,30.0,29.81,North,-999,-999.0,-999.0,25,-99.99,,,-99.99,meteohub,2013-03-30 17:38:00,
2013-03-30 13:43:00,66.9,30.0,29.81,North,-999,-999.0,-999.0,25,-99.99,,,-99.99,meteohub,2013-03-30 17:43:00,
2013-03-30 13:49:00,67.8,30.7,29.81,North,-999,-999.0,-999.0,25,-99.99,,,-99.99,meteohub,2013-03-30 17:49:00,
2013-03-30 13:54:00,68.2,31.1,29.81,North,-999,-999.0,-999.0,25,-99.99,,,-99.99,meteohub,2013-03-30 17:54:00,
2013-03-30 13:59:00,68.4,31.3,29.81,North,-999,-999.0,-999.0,25,-99.99,,,-99.99,meteohub,2013-03-30 17:59:00,
2013-03-30 14:04:00,68.9,31.6,29.81,North,-999,-999.0,-999.0,25,-99.99,,,-99.99,meteohub,2013-03-30 18:04:00,
2013-03-30 14:09:00,67.8,30.7,29.81,North,-999,-999.0,-999.0,25,-99.99,,,-99.99,meteohub,2013-03-30 18:09:00,
2013-03-30 14:15:00,67.8,31.8,29.81,North,-999,-999.0,-999.0,26,-99.99,,,-99.99,meteohub,2013-03-30 18:15:00,
2013-03-30 14:20:00,67.3,31.3,29.81,North,-999,-999.0,-999.0,26,-99.99,,,-99.99,meteohub,2013-03-30 18:20:00,
2013-03-30 14:25:00,67.3,31.3,29.81,North,-999,-999.0,-999.0,26,-99.99,,,-99.99,meteohub,2013-03-30 18:25:00,
2013-03-30 14:30:00,67.6,31.6,29.81,North,-999,-999.0,-999.0,26,-99.99,,,-99.99,meteohub,2013-03-30 18:30:00,
2013-03-30 14:35:00,67.1,32.0,29.81,North,-999,-999.0,-999.0,27,-99.99,,,-99.99,meteohub,2013-03-30 18:35:00,
2013-03-30 14:41:00,67.3,32.2,29.81,North,-999,-999.0,-999.0,27,-99.99,,,-99.99,meteohub,2013-03-30 18:41:00,
2013-03-30 14:46:00,65.8,30.9,29.81,North,-999,-999.0,-999.0,27,-99.99,,,-99.99,meteohub,2013-03-30 18:46:00,
2013-03-30 14:51:00,67.3,32.2,29.81,North,-999,-999.0,-999.0,27,-99.99,,,-99.99,meteohub,2013-03-30 18:51:00,
2013-03-30 14:56:00,67.1,32.0,29.81,North,-999,-999.0,-999.0,27,-99.99,,,-99.99,meteohub,2013-03-30 18:56:00,
2013-03-30 15:02:00,66.6,31.6,29.81,North,-999,-999.0,-999.0,27,-99.99,,,-99.99,meteohub,2013-03-30 19:02:00,
2013-03-30 15:07:00,65.7,31.6,29.78,North,-999,-999.0,-999.0,28,-99.99,,,-99.99,meteohub,2013-03-30 19:07:00,
2013-03-30 15:12:00,65.8,31.8,29.78,North,-999,-999.0,-999.0,28,-99.99,,,-99.99,meteohub,2013-03-30 19:12:00,
2013-03-30 15:17:00,66.9,33.6,29.78,North,-999,-999.0,-999.0,29,-99.99,,,-99.99,meteohub,2013-03-30 19:17:00,
2013-03-30 15:22:00,67.8,34.5,29.78,North,-999,-999.0,-999.0,29,-99.99,,,-99.99,meteohub,2013-03-30 19:22:00,
2013-03-30 15:27:00,67.3,33.1,29.78,North,-999,-999.0,-999.0,28,-99.99,,,-99.99,meteohub,2013-03-30 19:27:00,
2013-03-30 15:32:00,66.9,33.6,29.78,North,-999,-999.0,-999.0,29,-99.99,,,-99.99,meteohub,2013-03-30 19:32:00,
2013-03-30 15:38:00,66.2,33.1,29.78,North,-999,-999.0,-999.0,29,-99.99,,,-99.99,meteohub,2013-03-30 19:38:00,
2013-03-30 15:43:00,65.7,33.4,29.78,North,-999,-999.0,-999.0,30,-99.99,,,-99.99,meteohub,2013-03-30 19:43:00,
2013-03-30 15:48:00,66.2,34.7,29.78,North,-999,-999.0,-999.0,31,-99.99,,,-99.99,meteohub,2013-03-30 19:48:00,
2013-03-30 15:53:00,66.9,36.1,29.78,North,-999,-999.0,-999.0,32,-99.99,,,-99.99,meteohub,2013-03-30 19:53:00,
2013-03-30 15:58:00,66.9,35.4,29.78,North,-999,-999.0,-999.0,31,-99.99,,,-99.99,meteohub,2013-03-30 19:58:00,
2013-03-30 16:04:00,66.9,36.1,29.78,North,-999,-999.0,-999.0,32,-99.99,,,-99.99,meteohub,2013-03-30 20:04:00,
2013-03-30 16:09:00,67.1,36.3,29.78,North,-999,-999.0,-999.0,32,-99.99,,,-99.99,meteohub,2013-03-30 20:09:00,
2013-03-30 16:14:00,67.3,36.5,29.78,North,-999,-999.0,-999.0,32,-99.99,,,-99.99,meteohub,2013-03-30 20:14:00,
2013-03-30 16:19:00,67.5,37.4,29.78,North,-999,-999.0,-999.0,33,-99.99,,,-99.99,meteohub,2013-03-30 20:19:00,
2013-03-30 16:24:00,66.2,35.6,29.78,North,-999,-999.0,-999.0,32,-99.99,,,-99.99,meteohub,2013-03-30 20:24:00,
2013-03-30 16:30:00,66.4,35.6,29.78,North,-999,-999.0,-999.0,32,-99.99,,,-99.99,meteohub,2013-03-30 20:30:00,
2013-03-30 16:35:00,66.2,35.6,29.78,North,-999,-999.0,-999.0,32,-99.99,,,-99.99,meteohub,2013-03-30 20:35:00,
2013-03-30 16:40:00,66.2,36.3,29.78,North,-999,-999.0,-999.0,33,-99.99,,,-99.99,meteohub,2013-03-30 20:40:00,
2013-03-30 16:45:00,66.4,36.5,29.78,North,-999,-999.0,-999.0,33,-99.99,,,-99.99,meteohub,2013-03-30 20:45:00,
2013-03-30 16:50:00,66.4,36.5,29.78,North,-999,-999.0,-999.0,33,-99.99,,,-99.99,meteohub,2013-03-30 20:50:00,
2013-03-30 16:55:00,66.0,36.1,29.78,North,-999,-999.0,-999.0,33,-99.99,,,-99.99,meteohub,2013-03-30 20:55:00,
2013-03-30 17:01:00,66.0,36.1,29.78,North,-999,-999.0,-999.0,33,-99.99,,,-99.99,meteohub,2013-03-30 21:01:00,
2013-03-30 17:06:00,66.2,36.3,29.78,North,-999,-999.0,-999.0,33,-99.99,,,-99.99,meteohub,2013-03-30 21:06:00,
2013-03-30 17:11:00,65.8,36.0,29.78,North,-999,-999.0,-999.0,33,-99.99,,,-99.99,meteohub,2013-03-30 21:11:00,
2013-03-30 17:16:00,65.8,36.0,29.78,North,-999,-999.0,-999.0,33,-99.99,,,-99.99,meteohub,2013-03-30 21:16:00,
2013-03-30 17:21:00,66.0,36.1,29.75,North,-999,-999.0,-999.0,33,-99.99,,,-99.99,meteohub,2013-03-30 21:21:00,
2013-03-30 17:26:00,65.7,35.8,29.75,North,-999,-999.0,-999.0,33,-99.99,,,-99.99,meteohub,2013-03-30 21:26:00,
2013-03-30 17:32:00,65.8,36.0,29.75,North,-999,-999.0,-999.0,33,-99.99,,,-99.99,meteohub,2013-03-30 21:32:00,
2013-03-30 17:37:00,65.8,36.0,29.78,North,-999,-999.0,-999.0,33,-99.99,,,-99.99,meteohub,2013-03-30 21:37:00,
2013-03-30 17:42:00,65.5,36.3,29.78,North,-999,-999.0,-999.0,34,-99.99,,,-99.99,meteohub,2013-03-30 21:42:00,
2013-03-30 17:47:00,65.5,36.3,29.78,North,-999,-999.0,-999.0,34,-99.99,,,-99.99,meteohub,2013-03-30 21:47:00,
2013-03-30 17:52:00,65.3,36.3,29.75,North,-999,-999.0,-999.0,34,-99.99,,,-99.99,meteohub,2013-03-30 21:52:00,
2013-03-30 17:57:00,65.5,36.3,29.75,North,-999,-999.0,-999.0,34,-99.99,,,-99.99,meteohub,2013-03-30 21:57:00,
2013-03-30 18:02:00,65.1,36.1,29.75,North,-999,-999.0,-999.0,34,-99.99,,,-99.99,meteohub,2013-03-30 22:02:00,
2013-03-30 18:07:00,64.8,35.8,29.78,North,-999,-999.0,-999.0,34,-99.99,,,-99.99,meteohub,2013-03-30 22:07:00,
2013-03-30 18:12:00,64.8,35.8,29.78,North,-999,-999.0,-999.0,34,-99.99,,,-99.99,meteohub,2013-03-30 22:12:00,
2013-03-30 18:17:00,64.8,35.8,29.78,North,-999,-999.0,-999.0,34,-99.99,,,-99.99,meteohub,2013-03-30 22:17:00,
2013-03-30 18:22:00,64.6,35.6,29.78,North,-999,-999.0,-999.0,34,-99.99,,,-99.99,meteohub,2013-03-30 22:22:00,
2013-03-30 18:27:00,64.2,36.0,29.78,North,-999,-999.0,-999.0,35,-99.99,,,-99.99,meteohub,2013-03-30 22:27:00,
2013-03-30 18:33:00,63.9,35.8,29.78,North,-999,-999.0,-999.0,35,-99.99,,,-99.99,meteohub,2013-03-30 22:33:00,
2013-03-30 18:38:00,63.5,35.4,29.78,North,-999,-999.0,-999.0,35,-99.99,,,-99.99,meteohub,2013-03-30 22:38:00,
2013-03-30 18:43:00,63.1,35.8,29.78,North,-999,-999.0,-999.0,36,-99.99,,,-99.99,meteohub,2013-03-30 22:43:00,
2013-03-30 18:48:00,63.0,35.6,29.78,North,-999,-999.0,-999.0,36,-99.99,,,-99.99,meteohub,2013-03-30 22:48:00,
2013-03-30 18:53:00,62.6,35.2,29.78,North,-999,-999.0,-999.0,36,-99.99,,,-99.99,meteohub,2013-03-30 22:53:00,
2013-03-30 18:59:00,62.2,35.6,29.78,North,-999,-999.0,-999.0,37,-99.99,,,-99.99,meteohub,2013-03-30 22:59:00,
2013-03-30 19:04:00,61.9,35.4,29.78,North,-999,-999.0,-999.0,37,-99.99,,,-99.99,meteohub,2013-03-30 23:04:00,
2013-03-30 19:09:00,61.9,36.0,29.78,North,-999,-999.0,-999.0,38,-99.99,,,-99.99,meteohub,2013-03-30 23:09:00,
2013-03-30 19:14:00,61.7,36.0,29.78,North,-999,-999.0,-999.0,38,-99.99,,,-99.99,meteohub,2013-03-30 23:14:00,
2013-03-30 19:19:00,61.2,36.0,29.78,North,-999,-999.0,-999.0,39,-99.99,,,-99.99,meteohub,2013-03-30 23:19:00,
2013-03-30 19:24:00,61.0,36.0,29.78,North,-999,-999.0,-999.0,39,-99.99,,,-99.99,meteohub,2013-03-30 23:24:00,
2013-03-30 19:30:00,60.6,36.1,29.78,North,-999,-999.0,-999.0,40,-99.99,,,-99.99,meteohub,2013-03-30 23:30:00,
2013-03-30 19:35:00,60.4,36.0,29.78,North,-999,-999.0,-999.0,40,-99.99,,,-99.99,meteohub,2013-03-30 23:35:00,
2013-03-30 19:40:00,60.1,36.3,29.78,North,-999,-999.0,-999.0,41,-99.99,,,-99.99,meteohub,2013-03-30 23:40:00,
2013-03-30 19:45:00,59.7,36.0,29.78,North,-999,-999.0,-999.0,41,-99.99,,,-99.99,meteohub,2013-03-30 23:45:00,
2013-03-30 19:50:00,59.4,35.8,29.78,North,-999,-999.0,-999.0,41,-99.99,,,-99.99,meteohub,2013-03-30 23:50:00,
2013-03-30 19:56:00,59.0,36.0,29.78,North,-999,-999.0,-999.0,42,-99.99,,,-99.99,meteohub,2013-03-30 23:56:00,
2013-03-30 20:01:00,58.6,36.3,29.78,North,-999,-999.0,-999.0,43,-99.99,,,-99.99,meteohub,2013-03-31 00:01:00,
2013-03-30 20:06:00,58.3,36.5,29.78,North,-999,-999.0,-999.0,44,-99.99,,,-99.99,meteohub,2013-03-31 00:06:00,
2013-03-30 20:11:00,57.9,36.7,29.78,North,-999,-999.0,-999.0,45,-99.99,,,-99.99,meteohub,2013-03-31 00:11:00,
2013-03-30 20:17:00,57.6,36.5,29.78,North,-999,-999.0,-999.0,45,-99.99,,,-99.99,meteohub,2013-03-31 00:17:00,
2013-03-30 20:22:00,57.2,36.1,29.78,North,-999,-999.0,-999.0,45,-99.99,,,-99.99,meteohub,2013-03-31 00:22:00,
2013-03-30 20:27:00,56.8,36.3,29.78,North,-999,-999.0,-999.0,46,-99.99,,,-99.99,meteohub,2013-03-31 00:27:00,
2013-03-30 20:32:00,56.7,36.1,29.78,North,-999,-999.0,-999.0,46,-99.99,,,-99.99,meteohub,2013-03-31 00:32:00,
2013-03-30 20:37:00,56.5,36.5,29.78,North,-999,-999.0,-999.0,47,-99.99,,,-99.99,meteohub,2013-03-31 00:37:00,
2013-03-30 20:42:00,56.3,36.3,29.78,North,-999,-999.0,-999.0,47,-99.99,,,-99.99,meteohub,2013-03-31 00:42:00,
2013-03-30 20:47:00,56.1,36.1,29.78,North,-999,-999.0,-999.0,47,-99.99,,,-99.99,meteohub,2013-03-31 00:47:00,
2013-03-30 20:52:00,55.9,36.5,29.78,North,-999,-999.0,-999.0,48,-99.99,,,-99.99,meteohub,2013-03-31 00:52:00,
2013-03-30 20:57:00,55.8,36.3,29.78,North,-999,-999.0,-999.0,48,-99.99,,,-99.99,meteohub,2013-03-31 00:57:00,
2013-03-30 21:02:00,55.6,36.3,29.78,North,-999,-999.0,-999.0,48,-99.99,,,-99.99,meteohub,2013-03-31 01:02:00,
2013-03-30 21:08:00,55.6,36.3,29.78,North,-999,-999.0,-999.0,48,-99.99,,,-99.99,meteohub,2013-03-31 01:08:00,
2013-03-30 21:13:00,55.6,36.7,29.78,North,-999,-999.0,-999.0,49,-99.99,,,-99.99,meteohub,2013-03-31 01:13:00,
2013-03-30 21:18:00,55.6,36.7,29.78,North,-999,-999.0,-999.0,49,-99.99,,,-99.99,meteohub,2013-03-31 01:18:00,
2013-03-30 21:23:00,55.6,36.7,29.78,North,-999,-999.0,-999.0,49,-99.99,,,-99.99,meteohub,2013-03-31 01:23:00,
2013-03-30 21:28:00,55.6,36.7,29.78,North,-999,-999.0,-999.0,49,-99.99,,,-99.99,meteohub,2013-03-31 01:28:00,
2013-03-30 21:33:00,55.6,37.2,29.78,North,-999,-999.0,-999.0,50,-99.99,,,-99.99,meteohub,2013-03-31 01:33:00,
2013-03-30 21:38:00,55.6,37.2,29.78,North,-999,-999.0,-999.0,50,-99.99,,,-99.99,meteohub,2013-03-31 01:38:00,
2013-03-30 21:43:00,55.4,37.0,29.78,North,-999,-999.0,-999.0,50,-99.99,,,-99.99,meteohub,2013-03-31 01:43:00,
2013-03-30 21:49:00,55.6,37.2,29.78,North,-999,-999.0,-999.0,50,-99.99,,,-99.99,meteohub,2013-03-31 01:49:00,
2013-03-30 21:54:00,55.4,37.0,29.78,North,-999,-999.0,-999.0,50,-99.99,,,-99.99,meteohub,2013-03-31 01:54:00,
2013-03-30 21:59:00,55.4,37.6,29.78,North,-999,-999.0,-999.0,51,-99.99,,,-99.99,meteohub,2013-03-31 01:59:00,
2013-03-30 22:04:00,55.4,37.6,29.78,North,-999,-999.0,-999.0,51,-99.99,,,-99.99,meteohub,2013-03-31 02:04:00,
2013-03-30 22:09:00,55.4,37.6,29.78,North,-999,-999.0,-999.0,51,-99.99,,,-99.99,meteohub,2013-03-31 02:09:00,
2013-03-30 22:14:00,55.4,37.6,29.78,North,-999,-999.0,-999.0,51,-99.99,,,-99.99,meteohub,2013-03-31 02:14:00,
2013-03-30 22:20:00,55.4,38.1,29.78,North,-999,-999.0,-999.0,52,-99.99,,,-99.99,meteohub,2013-03-31 02:20:00,
2013-03-30 22:25:00,55.6,38.7,29.78,North,-999,-999.0,-999.0,53,-99.99,,,-99.99,meteohub,2013-03-31 02:25:00,
2013-03-30 22:30:00,55.8,38.8,29.78,North,-999,-999.0,-999.0,53,-99.99,,,-99.99,meteohub,2013-03-31 02:30:00,
2013-03-30 22:35:00,55.9,39.0,29.81,North,-999,-999.0,-999.0,53,-99.99,,,-99.99,meteohub,2013-03-31 02:35:00,
2013-03-30 22:40:00,55.9,39.0,29.81,North,-999,-999.0,-999.0,53,-99.99,,,-99.99,meteohub,2013-03-31 02:40:00,
2013-03-30 22:45:00,56.1,39.7,29.81,North,-999,-999.0,-999.0,54,-99.99,,,-99.99,meteohub,2013-03-31 02:45:00,
2013-03-30 22:50:00,56.3,39.9,29.78,North,-999,-999.0,-999.0,54,-99.99,,,-99.99,meteohub,2013-03-31 02:50:00,
2013-03-30 22:56:00,56.3,40.3,29.78,North,-999,-999.0,-999.0,55,-99.99,,,-99.99,meteohub,2013-03-31 02:56:00,
2013-03-30 23:01:00,56.3,39.9,29.78,North,-999,-999.0,-999.0,54,-99.99,,,-99.99,meteohub,2013-03-31 03:01:00,
2013-03-30 23:06:00,56.5,40.1,29.78,North,-999,-999.0,-999.0,54,-99.99,,,-99.99,meteohub,2013-03-31 03:06:00,
2013-03-30 23:11:00,56.5,40.1,29.78,North,-999,-999.0,-999.0,54,-99.99,,,-99.99,meteohub,2013-03-31 03:11:00,
2013-03-30 23:17:00,56.3,39.9,29.78,North,-999,-999.0,-999.0,54,-99.99,,,-99.99,meteohub,2013-03-31 03:17:00,
2013-03-30 23:22:00,56.3,40.3,29.78,North,-999,-999.0,-999.0,55,-99.99,,,-99.99,meteohub,2013-03-31 03:22:00,
2013-03-30 23:27:00,56.1,39.7,29.78,North,-999,-999.0,-999.0,54,-99.99,,,-99.99,meteohub,2013-03-31 03:27:00,
2013-03-30 23:32:00,55.9,40.1,29.78,North,-999,-999.0,-999.0,55,-99.99,,,-99.99,meteohub,2013-03-31 03:32:00,
2013-03-30 23:38:00,55.9,40.5,29.78,North,-999,-999.0,-999.0,56,-99.99,,,-99.99,meteohub,2013-03-31 03:38:00,
2013-03-30 23:43:00,55.8,40.3,29.78,North,-999,-999.0,-999.0,56,-99.99,,,-99.99,meteohub,2013-03-31 03:43:00,
2013-03-30 23:48:00,55.8,40.3,29.78,North,-999,-999.0,-999.0,56,-99.99,,,-99.99,meteohub,2013-03-31 03:48:00,
2013-03-30 23:53:00,55.6,40.6,29.78,North,-999,-999.0,-999.0,57,-99.99,,,-99.99,meteohub,2013-03-31 03:53:00,
2013-03-30 23:58:00,55.6,40.6,29.78,North,-999,-999.0,-999.0,57,-99.99,,,-99.99,meteohub,2013-03-31 03:58:00,